Regional Weather Roundup
Issued by NWS

Home | Current Version | Previous Version | Graphics & Text | Print | Product List | Glossary On
Versions: 1 2 3 4 5 6 7 8 9 10 11 12 13 14 15 16 17 18 19 20 21 22 23 24 25 26 27 28 29 30 31 32 33 34 35 36 37 38 39 40 41 42 43 44 45 46 47 48 49 50
313
ASUS43 KLMK 240202
RWRKY
KENTUCKY REGIONAL WEATHER ROUNDUP
NATIONAL WEATHER SERVICE LOUISVILLE KY
1000 PM EDT THU MAR 23 2017

NOTE "FAIR" INDICATES FEW OR NO CLOUDS BELOW 12,000 FEET
WITH NO SIGNIFICANT WEATHER AND/OR OBSTRUCTIONS TO VISIBILITY.

KYZ001>023-026-027-061>063-070>075-240300-
WESTERN AND SOUTH CENTRAL KENTUCKY

CITY           SKY/WX    TMP DP  RH WIND       PRES   REMARKS
PADUCAH        CLEAR     55  42  61 SE10      30.12F
HENDERSON      CLEAR     46  36  66 E3        30.16F
OWENSBORO      CLEAR     52  43  71 SE7       30.18F
HOPKINSVILLE   CLEAR     56  44  63 SE6       30.17R
BOWLING GREEN  CLEAR     53  43  68 E5        30.23R
GLASGOW        NOT AVBL
$$

KYZ024-025-028>034-038-045-046-053-240300-
NORTH CENTRAL KENTUCKY

CITY           SKY/WX    TMP DP  RH WIND       PRES   REMARKS
LOUISVILLE/SDF CLOUDY    60  34  37 SE10      30.21F
LOUISVILLE/LOU CLOUDY    59  35  40 SE5       30.23S
FORT KNOX      PTCLDY    56  39  53 SE9       30.20F
$$

KYZ035>037-039>044-047>052-055>060-089>105-240300-
NORTHEAST KENTUCKY

CITY           SKY/WX    TMP DP  RH WIND       PRES   REMARKS
LEXINGTON      CLEAR     56  33  42 S6        30.26R
COVINGTON      CLOUDY    54  33  45 S8        30.22F
FRANKFORT      MOCLDY    56  38  50 CALM      30.23F
$$

KYZ054-064>069-076>088-106>120-240300-
SOUTHEAST KENTUCKY

CITY           SKY/WX    TMP DP  RH WIND       PRES   REMARKS
JACKSON        PTCLDY    60  30  32 S3        30.30R
LONDON         MOCLDY    57  35  43 S3        30.30R
SOMERSET       NOT AVBL
MIDDLESBORO    CLEAR     50  40  69 CALM      30.33R
MONTICELLO     PTCLDY    59  39  47 E6        30.31R
$$





USA.gov is the U.S. government's official web portal to all federal, state and local government web resources and services.